Location: *
(44.9308°N, 123.0197°W)
Time: 03:15:59
(UTC+00:00)

BREEZE-M DEB (TANK) - Pass Details

Date: 09 April 2020
Orbit: 687 x 22242 km, 51.3° (Epoch: 23 May)

Event Time Altitude Azimuth Distance (km) Brightness Sun altitude
Rises 12:00:12 0° 300° (WNW) 4,571 6.7 -16.8°
Reaches altitude 10° 12:04:02 10° 291° (WNW) 2,756 5.5 -16.2°
Maximum altitude 12:08:30 31° 227° (SW) 1,231 3.5 -15.5°
Drops below altitude 10° 12:12:07 10° 162° (SSE) 2,205 5.3 -14.9°
Sets 12:14:46 0° 151° (SSE) 3,453 6.4 -14.5°
